Location: Paddlesworth
(51.1000°N, 1.1333°E)
Time: 07:28:52
(UTC+00:00)

ATLAS 2AS CENTAUR R/B - Pass Details

Date: 11 May 2021
Orbit: 949 x 1263 km, 63.7° (Epoch: 07 May)

Event Time Altitude Azimuth Distance (km) Brightness Sun altitude
Rises 23:12:37 0° 314° (NW) 4,092 6.6 -20.2°
Reaches altitude 10° 23:15:41 10° 306° (NW) 3,080 5.7 -20.3°
Maximum altitude 23:22:04 34° 246° (WSW) 1,740 3.6 -20.5°
Enters shadow 23:24:29 27° 210° (SSW) 1,949 3.6 -20.5°
